Weather History for KOSC - July, 2013

Change the Weather History Date:

Thursday, July 11, 2013

  Actual Average Record
Temperature  
Mean Temperature 60 °F -  
Max Temperature 69 °F 77 °F 89 °F (2005)
Min Temperature 52 °F 56 °F 46 °F (2012)
Degree Days  
Heating Degree Days 4    
Growing Degree Days 10 (Base 50)    
Moisture  
Dew Point 52 °F    
Average Humidity 71    
Maximum Humidity 91    
Minimum Humidity 53    
Precipitation  
Precipitation 0.01 in - - ()
Sea Level Pressure  
Sea Level Pressure 30.04 in    
Wind  
Wind Speed 9 mph (North)    
Max Wind Speed 20 mph    
Max Gust Speed 24 mph    
Visibility 10 miles    
Events      
Averages and records for this station are not official NWS values.
T = Trace of Precipitation, MM = Missing Value Source: NWS Daily Summary

Daily Weather History Graph

Daily Weather History Graph

Search for Another Location

Airport or City:

Trip Planner

Search our weather history database for the weather conditions in past years. The results will help you decide how hot, cold, wet, or windy it might be!

Date:

Astronomy

Jul. 11, 2013 Rise Set
Actual Time 5:59 AM EDT 9:17 PM EDT
Civil Twilight 5:24 AM EDT 9:53 PM EDT
Nautical Twilight 4:37 AM EDT 10:39 PM EDT
Astronomical Twilight 3:39 AM EDT 11:37 PM EDT
Moon 9:27 AM EDT (7/11) 10:47 PM EDT (7/11)
Length of Visible Light 16h 29m
Length of Day
15h 18m
Waxing Crescent, 10% of the Moon is Illuminated
Jul 11
Waxing Crescent
Jul 15
First Quarter
Jul 22
Full
Jul 29
Last Quarter
Aug 6
New

Hourly Weather History & Observations

Time (EDT) Temp. Dew Point Humidity Pressure Visibility Wind Dir Wind Speed Gust Speed Precip Events Conditions
12:14 AM 59.2 °F 52.7 °F 79% 29.93 in 10.0 mi West 8.1 mph - N/A   Clear
12:33 AM 58.5 °F 52.7 °F 81% 29.93 in 10.0 mi West 6.9 mph - N/A   Clear
12:54 AM 58.3 °F 52.7 °F 82% 29.94 in 10.0 mi West 8.1 mph - N/A   Clear
1:14 AM 58.1 °F 52.9 °F 83% 29.95 in 10.0 mi West 9.2 mph - N/A   Clear
1:33 AM 58.3 °F 53.6 °F 84% 29.95 in 10.0 mi West 8.1 mph - N/A   Clear
1:54 AM 58.3 °F 53.8 °F 85% 29.95 in 10.0 mi West 6.9 mph - N/A   Clear
2:14 AM 58.1 °F 53.8 °F 86% 29.96 in 10.0 mi West 9.2 mph - N/A   Clear
2:33 AM 57.2 °F 53.8 °F 88% 29.95 in 10.0 mi West 6.9 mph - N/A   Clear
2:54 AM 56.8 °F 53.6 °F 89% 29.95 in 10.0 mi West 6.9 mph - 0.01 in   Clear
3:13 AM 56.5 °F 53.6 °F 90% 29.95 in 10.0 mi West 6.9 mph - N/A   Clear
3:33 AM 55.8 °F 53.1 °F 91% 29.96 in 10.0 mi West 5.8 mph - N/A   Clear
3:54 AM 55.8 °F 52.7 °F 89% 29.96 in 10.0 mi West 4.6 mph - N/A   Clear
4:13 AM 55.4 °F 52.5 °F 90% 29.96 in 10.0 mi West 5.8 mph - N/A   Clear
4:34 AM 55.4 °F 52.3 °F 89% 29.95 in 10.0 mi West 5.8 mph - N/A   Clear
4:54 AM 55.0 °F 52.0 °F 89% 29.96 in 10.0 mi West 6.9 mph - N/A   Clear
5:13 AM 55.4 °F 52.0 °F 88% 29.97 in 10.0 mi West 6.9 mph - N/A   Clear
5:34 AM 55.2 °F 52.0 °F 89% 29.97 in 10.0 mi WNW 6.9 mph - N/A   Clear
5:54 AM 54.9 °F 52.0 °F 90% 29.98 in 10.0 mi WNW 6.9 mph - N/A   Clear
6:13 AM 55.4 °F 52.2 °F 89% 29.99 in 10.0 mi WNW 6.9 mph - N/A   Clear
6:34 AM 55.8 °F 52.3 °F 88% 30.00 in 10.0 mi WNW 9.2 mph - N/A   Clear
6:54 AM 56.5 °F 52.7 °F 87% 30.01 in 10.0 mi WNW 6.9 mph - N/A   Clear
7:13 AM 57.9 °F 53.1 °F 84% 30.01 in 10.0 mi NW 8.1 mph - N/A   Clear
7:34 AM 59.4 °F 53.6 °F 81% 30.02 in 10.0 mi NW 9.2 mph - N/A   Clear
7:54 AM 60.8 °F 54.0 °F 78% 30.03 in 10.0 mi NW 8.1 mph - N/A   Clear
8:13 AM 61.7 °F 54.1 °F 76% 30.03 in 10.0 mi NNW 11.5 mph - N/A   Clear
8:34 AM 62.8 °F 54.9 °F 75% 30.03 in 10.0 mi NNW 8.1 mph - N/A   Clear
8:54 AM 64.6 °F 54.7 °F 70% 30.04 in 10.0 mi NNW 9.2 mph - N/A   Clear
9:13 AM 65.3 °F 54.1 °F 67% 30.04 in 10.0 mi NNW 9.2 mph - N/A   Clear
9:34 AM 66.4 °F 54.1 °F 65% 30.04 in 10.0 mi North 9.2 mph - N/A   Clear
9:54 AM 67.8 °F 53.8 °F 61% 30.05 in 10.0 mi North 9.2 mph - N/A   Clear
10:13 AM 68.4 °F 52.2 °F 56% 30.05 in 10.0 mi North 9.2 mph - N/A   Clear
10:34 AM 69.4 °F 52.5 °F 55% 30.06 in 10.0 mi North 11.5 mph - N/A   Clear
10:54 AM 69.4 °F 53.2 °F 56% 30.06 in 10.0 mi ENE 11.5 mph - N/A   Scattered Clouds
11:13 AM 69.6 °F 52.0 °F 53% 30.06 in 10.0 mi NE 11.5 mph - N/A   Mostly Cloudy
11:34 AM 69.3 °F 52.0 °F 54% 30.06 in 10.0 mi NE 15.0 mph 18.4 mph N/A   Overcast
11:54 AM 67.3 °F 51.4 °F 57% 30.07 in 10.0 mi NE 13.8 mph - N/A   Overcast
12:13 PM 68.2 °F 51.6 °F 55% 30.07 in 10.0 mi NE 12.7 mph 19.6 mph N/A   Overcast
12:34 PM 68.9 °F 52.5 °F 56% 30.08 in 10.0 mi ENE 13.8 mph - N/A   Scattered Clouds
12:54 PM 68.9 °F 52.5 °F 56% 30.08 in 10.0 mi NNE 15.0 mph - N/A   Scattered Clouds
1:13 PM 68.0 °F 50.4 °F 53% 30.08 in 10.0 mi NE 13.8 mph - N/A   Scattered Clouds
1:34 PM 68.5 °F 51.3 °F 54% 30.08 in 10.0 mi NNE 16.1 mph 19.6 mph N/A   Scattered Clouds
1:54 PM 68.4 °F 52.7 °F 57% 30.08 in 10.0 mi NE 16.1 mph - N/A   Clear
2:13 PM 68.0 °F 52.5 °F 58% 30.08 in 10.0 mi NE 15.0 mph 20.7 mph N/A   Clear
2:34 PM 68.2 °F 52.2 °F 56% 30.08 in 10.0 mi NE 16.1 mph - N/A   Clear
2:54 PM 68.7 °F 52.7 °F 57% 30.08 in 10.0 mi NE 17.3 mph - N/A   Clear
3:13 PM 69.1 °F 52.7 °F 56% 30.08 in 10.0 mi NE 17.3 mph - N/A   Clear
3:34 PM 68.7 °F 52.3 °F 56% 30.08 in 10.0 mi NE 19.6 mph 23.0 mph N/A   Clear
3:54 PM 68.5 °F 50.9 °F 53% 30.09 in 10.0 mi NE 13.8 mph 21.9 mph N/A   Clear
4:13 PM 68.9 °F 51.1 °F 53% 30.09 in 10.0 mi NE 19.6 mph 24.2 mph N/A   Clear
4:34 PM 68.0 °F 50.5 °F 54% 30.09 in 10.0 mi NE 16.1 mph 21.9 mph N/A   Clear
4:54 PM 67.5 °F 50.9 °F 55% 30.09 in 10.0 mi NE 16.1 mph 21.9 mph N/A   Clear
5:13 PM 68.0 °F 50.2 °F 53% 30.09 in 10.0 mi NE 16.1 mph 21.9 mph N/A   Clear
5:34 PM 67.5 °F 50.4 °F 54% 30.09 in 10.0 mi NE 16.1 mph 20.7 mph N/A   Clear
5:53 PM 67.1 °F 51.3 °F 57% 30.09 in 10.0 mi NE 15.0 mph 20.7 mph N/A   Clear
6:14 PM 66.4 °F 51.3 °F 58% 30.10 in 10.0 mi NE 13.8 mph - N/A   Clear
6:34 PM 66.6 °F 51.8 °F 59% 30.09 in 10.0 mi NE 16.1 mph 20.7 mph N/A   Clear
6:53 PM 66.0 °F 52.0 °F 60% 30.10 in 10.0 mi NE 13.8 mph 19.6 mph N/A   Clear
7:14 PM 65.8 °F 52.3 °F 62% 30.09 in 10.0 mi NE 13.8 mph - N/A   Clear
7:34 PM 65.1 °F 52.0 °F 62% 30.10 in 10.0 mi NE 10.4 mph - N/A   Clear
7:53 PM 64.8 °F 51.6 °F 62% 30.10 in 10.0 mi NE 9.2 mph - N/A   Clear
8:14 PM 64.2 °F 51.3 °F 63% 30.10 in 10.0 mi NE 8.1 mph - N/A   Clear
8:34 PM 63.3 °F 51.3 °F 65% 30.10 in 10.0 mi NE 5.8 mph - N/A   Clear
8:53 PM 62.1 °F 51.8 °F 69% 30.09 in 10.0 mi NE 4.6 mph - N/A   Clear
9:14 PM 60.3 °F 51.8 °F 74% 30.09 in 10.0 mi NNE 4.6 mph - N/A   Clear
9:34 PM 60.6 °F 51.8 °F 73% 30.09 in 10.0 mi NNE 4.6 mph - N/A   Clear
9:53 PM 60.1 °F 52.3 °F 76% 30.09 in 10.0 mi NNE 3.5 mph - N/A   Clear
10:14 PM 59.5 °F 52.2 °F 77% 30.10 in 10.0 mi Calm Calm - N/A   Clear
10:34 PM 54.7 °F 50.9 °F 87% 30.10 in 10.0 mi Calm Calm - N/A   Clear
10:53 PM 56.1 °F 51.8 °F 85% 30.10 in 10.0 mi Calm Calm - N/A   Clear
11:14 PM 54.0 °F 50.2 °F 87% 30.10 in 10.0 mi Calm Calm - N/A   Clear
11:34 PM 52.7 °F 49.6 °F 89% 30.10 in 10.0 mi Calm Calm - N/A   Clear
11:53 PM 52.0 °F 48.6 °F 88% 30.10 in 10.0 mi Calm Calm - N/A   Clear